Regional Weather Roundup
Issued by NWS

Home | Current Version | Previous Version | Graphics & Text | Print | Product List | Glossary On
Versions: 1 2 3 4 5 6 7 8 9 10 11 12 13 14 15 16 17 18 19 20 21 22 23 24 25 26 27 28 29 30 31 32 33 34 35 36 37 38 39 40 41 42 43 44 45 46 47 48 49 50
561
ASUS43 KDMX 080301
RWRIA

WEATHER ROUNDUP FOR IOWA
NATIONAL WEATHER SERVICE DES MOINES IA
900 PM CST WED DEC 07 2016

NOTE: "FAIR" INDICATES FEW OR NO CLOUDS BELOW 12,000 FEET WITH NO
SIGNIFICANT WEATHER AND/OR OBSTRUCTIONS TO VISIBILITY.

* - THESE STATIONS ARE NOT NWS STATIONS...THUS NOT UNDER NWS
QUALITY CONTROL.  THEY ALSO DO NOT REPORT WEATHER SUCH
AS PRECIPITATION OR FOG.

IAZ001>003-012>014-020>022-031>034-043>046-080400-
   NORTHWEST IOWA

CITY           SKY/WX    TMP DP  RH WIND       PRES   REMARKS
CARROLL *      PTCLDY    16   9  73 W16G24    30.32S WCI   0
CHEROKEE *     CLEAR     14   7  72 NW15G22   30.33R WCI  -1
DENISON *      CLOUDY    16   9  73 W9G18     30.34R WCI   4
LE MARS *      PTCLDY    14   7  73 NW14G22   30.37S WCI  -1
ORANGE CITY *  PTCLDY    12   7  79 NW24G33   30.31R WCI  -8
SHELDON *      CLOUDY    12   7  79 NW23G32   30.28S WCI  -7
SIOUX CITY     MOCLDY    17   6  62 NW21      30.39R WCI   0
SPENCER        CLOUDY    13   6  74 NW29G35   30.28R WCI  -8
STORM LAKE *   FLURRIES  14   7  73 NW24G37   30.28R WCI  -5
$$

IAZ055>058-069>071-079>083-090>094-080400-
   SOUTHWEST IOWA

CITY           SKY/WX    TMP DP  RH WIND       PRES   REMARKS
ATLANTIC *     PTCLDY    18   9  68 NW16      30.38R WCI   3
AUDUBON *      CLEAR     16   9  73 W13G21    30.34R WCI   2
CLARINDA *     CLEAR     19  10  68 NW7G14    30.43R WCI  10
COUNCIL BLFS * CLEAR     18   7  62 NW16G29   30.40R WCI   3
CRESTON *      CLEAR     18   7  62 NW17G26   30.36R WCI   2
HARLAN  *      MOCLDY    16   7  67 NW21G26   30.40S WCI  -2
LAMONI         CLEAR     19  10  68 W16       30.35R WCI   4
RED OAK *      CLEAR     19   9  63 NW10G17   30.41R WCI   8
SHENANDOAH *   CLEAR     19  10  68 W10       30.43S WCI   8
$$

IAZ047>049-059>061-072>074-084-080400-
   CENTRAL IOWA

CITY           SKY/WX    TMP DP  RH WIND       PRES   REMARKS
AMES           CLEAR     18  10  71 W17G28    30.30R WCI   3
ANKENY *       CLEAR     19   9  63 W21G29    30.32S WCI   3
BOONE *        CLEAR     18   9  68 W20G26    30.28R WCI   1
CHARITON *     CLEAR     18  10  73 W9        30.33R WCI   6
DES MOINES     CLEAR     20   8  60 NW22G30   30.32S WCI   3
GRINNELL*      CLEAR     19  11  71 W16G28    30.28R WCI   4
KNOXVILLE *    CLEAR     19   9  63 W16       30.30S WCI   5
MARSHALLTOWN   CLEAR     18  11  74 W13       30.26S WCI   5
NEWTON *       CLEAR     19  10  68 W21G26    30.29R WCI   3
PELLA *        CLEAR     20   9  62 NW18      30.32R WCI   5
PERRY *          N/A     18  11  76 W20       30.33R WCI   1
$$

IAZ004>006-015-016-023>025-035-036-080400-
   NORTH CENTRAL IOWA

CITY           SKY/WX    TMP DP  RH WIND       PRES   REMARKS
ALGONA *       FLURRIES  16   9  73 NW22G30   30.24R WCI  -2
CLARION *      CLOUDY    18   9  68 NW21G29   30.25R WCI   1
ESTHERVILLE    MOCLDY    11   5  77 W22G32    30.24S WCI  -8
FORT DODGE *   PTCLDY    16   5  62 W10G20    30.28R WCI   3
MASON CITY     FLURRIES  16   8  71 NW21G26   30.22R WCI  -1
WEBSTER CITY * CLOUDY    18  10  73 W16G24    30.26R WCI   3
IOWA FALLS *   MOCLDY    19  11  73 W21G26    30.25S WCI   2
$$

IAZ007>011-017>019-026>030-037>042-050>054-066-080400-
   NORTHEAST IOWA

CITY           SKY/WX    TMP DP  RH WIND       PRES   REMARKS
CEDAR RAPIDS   CLEAR     18  13  80 W17       30.23S WCI   3
CHARLES CITY * FLURRIES  19  12  73 NW22G29   30.19R WCI   3
CLINTON *      FLURRIES  23  17  78 W21       30.20S WCI   8
DECORAH *      CLOUDY    19  10  68 NW16G29   30.13S WCI   5
DUBUQUE        CLOUDY    21  13  71 W17       30.15F WCI   7
MONTICELLO *   CLOUDY    23  14  68 W17       30.19S WCI   9
OELWEIN *      FLURRIES  19  12  73 W24G30    30.19R WCI   2
WATERLOO       CLOUDY    20  10  65 W20G26    30.22S WCI   4
$$

IAZ064-065-067-068-078-080400-
   EAST CENTRAL IOWA

CITY           SKY/WX    TMP DP  RH WIND       PRES   REMARKS
DAVENPORT      CLOUDY    23  14  68 W20G29    30.23R WCI   8
IOWA CITY      CLEAR     21  12  68 W10       30.28R WCI  10
MUSCATINE *    CLOUDY    23  14  68 W13G21    30.28S WCI  11
QUAD CITIES    CLOUDY    25  12  58 W22G29    30.24R WCI  10
$$

IAZ062-063-075>077-085>089-095>099-080400-
   SOUTHEAST IOWA

CITY           SKY/WX    TMP DP  RH WIND       PRES   REMARKS
BURLINGTON     CLEAR     22  12  65 W10       30.29R WCI  11
FAIRFIELD *    CLEAR     19  10  68 W9        30.30R WCI   9
FORT MADISON * CLEAR     21  12  68 W13G18    30.31R WCI   9
KEOKUK *       CLEAR     25  12  58 W14       30.31S WCI  13
OSKALOOSA *      N/A     20  12  71 W15G22    30.31R WCI   6
CENTERVILLE *    N/A     18  12  79 W10       30.34S WCI   6
OTTUMWA        CLEAR     20  10  65 W12       30.30S WCI   8
WASHINGTON *   CLEAR     21  14  73 W14       30.29S WCI   8
$$

ABBREVIATIONS USED IN REMARKS
   TC - TEMPERATURES IN CELSIUS
  WCI - WIND CHILL INDEX
   HX - HEAT INDEX
  VSB - VISIBILITY
$$





USA.gov is the U.S. government's official web portal to all federal, state and local government web resources and services.